Hourly Data Report for June 16, 2021

DRYDEN REGIONAL
ONTARIO
Current Station Operator: NAVCAN

49°49'39.000" N
92°44'39.000" W
412.70 m
6032125
71527
YHD

Download Data

Hourly Data (June 2021)
Hourly Data Report for June 16, 2021
TIME
LST
Temp Definition
°C
Dew Point Definition
°C
Rel Hum Definition
%
Precip. Amount Definition
mm

Wind Dir Definition
10's deg

Wind Spd Definition
km/h
Visibility Definition
km
Stn Press Definition
kPa
Hmdx Definition


Wind Chill Definition


Weather Definition


00:00 16.1 12.1 77 0.0 16 8 16.1 97.18     LegendNANA
01:00 16.5 10.9 69 0.0 16 8 16.1 97.16     LegendNANA
02:00 15.4 11.3 76 0.0 17 9 16.1 97.16     LegendNANA
03:00 12.9 12.4 97 0.0 8 5 16.1 97.15     LegendNANA
04:00 14.4 11.4 82 0.0 16 9 16.1 97.10     LegendNANA
05:00 14.6 11.8 83 0.0 15 5 16.1 97.09     LegendNANA
06:00 16.1 12.2 77 0.0 18 9 16.1 97.06     LegendNANA
07:00 18.3 12.9 70 0.0 19 15 16.1 97.03     LegendNANA
08:00 20.0 12.9 63 0.0 19 18 16.1 96.98     LegendNANA
09:00 21.1 13.1 60 0.0 19 18 16.1 96.93     LegendNANA
10:00 22.8 13.0 53 0.0 19 18 16.1 96.86 26   LegendNANA
11:00 23.8 12.9 50 0.0 21 18 16.1 96.85 27   LegendNANA
12:00 24.9 12.3 45 0.0 21 21 16.1 96.80 27   LegendNANA
13:00 24.9 11.9 44 0.0 18 26 16.1 96.61 27   LegendNANA
14:00 26.1 12.1 41 0.0 14 26 16.1 96.44 28   LegendNANA
15:00 25.9 11.7 41 0.0 20 24 16.1 96.42 28   LegendNANA
16:00 26.4 11.1 38 0.0 20 22 16.1 96.47 28   LegendNANA
17:00 25.7 10.9 39 0.0 19 24 16.1 96.28 27   LegendNANA
18:00 24.3 10.8 42 0.0 22 17 16.1 96.35 26   LegendNANA
19:00 22.9 11.8 49 0.0 20 15 16.1 96.23 25   LegendNANA
20:00 22.2 11.4 50 0.0 18 15 16.1 96.18     LegendNANA
21:00 21.0 11.8 55 0.0 20 15 16.1 96.10     LegendNANA
22:00 20.9 12.7 59 0.0 20 15 16.1 96.01     LegendNANA
23:00 20.5 13.6 64 0.0 21 17 16.1 95.95     LegendNANA

Notes on Data Quality.

Legend

  • E = Estimated
  • M = Missing
  • NA = Not Available*
  • [empty] = Indicates an unobserved value
Date modified: